Regional Weather Roundup
Issued by NWS

Home | Current Version | Previous Version | Text Only | Print | Product List | Glossary Off
Versions: 1 2 3 4 5 6 7 8 9 10 11 12 13 14 15 16 17 18 19 20 21 22 23 24 25 26 27 28 29 30 31 32 33 34 35 36 37 38 39 40 41 42 43 44 45 46 47 48 49 50

000
ASUS45 KBOI 182310
RWRID

IDAHO REGIONAL WEATHER ROUNDUP
NATIONAL WEATHER SERVICE BOISE ID
400 PM MST SAT FEB 18 2017

NOTE: "FAIR" INDICATES FEW OR NO CLOUDS BELOW 12000 FEET
WITH NO SIGNIFICANT WEATHER AND/OR OBSTRUCTIONS TO VISIBILITY

IDZ012-014-190000-
SOUTHWEST IDAHO


CITY           SKY/WX    TMP DP  RH WIND       PRES   REMARKS
BOISE          CLOUDY    49  41  74 SE15      29.42F
CALDWELL       CLOUDY    52  43  71 E16G23    29.41F
MOUNTAIN HOME  CLOUDY    48  48 100 E17       29.44F
$$

IDZ016-017-190000-
SOUTHCENTRAL IDAHO


CITY           SKY/WX    TMP DP  RH WIND       PRES   REMARKS
BURLEY         LGT RAIN  48  36  63 W10       29.52S
JEROME         CLOUDY    45  36  70 E6        29.51S
TWIN FALLS     CLOUDY    48  34  58 SE12      29.50S
$$

IDZ019>023-190000-
SOUTHEAST IDAHO


CITY           SKY/WX    TMP DP  RH WIND       PRES   REMARKS
IDAHO FALLS    LGT RAIN  43  36  76 S15       29.60R
POCATELLO      CLOUDY    47  34  60 SW15      29.58R
REXBURG        LGT RAIN  45  34  65 S14G24    29.59S
$$

IDZ006-010-011-018-031-032-190000-
CENTRAL IDAHO MOUNTAINS


CITY           SKY/WX    TMP DP  RH WIND       PRES   REMARKS
MCCALL         LGT RAIN  35  32  88 S10       29.40F WCI  27
HAILEY         LGT RAIN  36  34  93 SE3       29.56S
STANLEY          N/A     35  33  92 SE9       29.48S WCI  28
SALMON         CLOUDY    45  32  61 S8        29.44S
CHALLIS        CLOUDY    38  32  79 CALM      29.47S
$$

IDZ002-004-006-007-026-190000-
NORTHERN IDAHO


CITY           SKY/WX    TMP DP  RH WIND       PRES   REMARKS
LEWISTON       LGT RAIN  44  40  85 NW5       29.37R
LOWELL           N/A     38  34  85 N5        29.37F WCI  34
COEUR D`ALENE  LGT RAIN  36  34  92 NE9       29.37S WCI  29
MULLAN PASS    SNOW      31  31 100 VRB5      29.33F VSB<1/4 WCI  26
$$



USA.gov is the U.S. government's official web portal to all federal, state and local government web resources and services.